This demonstration page uses our WeatherBlox Daily Observations layout. Learn more.

Left ArrowRight Arrow

44.8408, -93.29828

Hourly Observations for November 5, 2020

Temp ( °F °C ) Dew Point ( °F °C ) Humidity (%) Winds ( mph kmh ) Pressure ( in mb ) Visibility ( mi km ) Precip ( " mm )
12:53 am 00:53 Mostly Cloudy 53 11.7 36 2.2 52 52 SW 3 6 29.98 1015 10 16 0.00 0.00
1:53 am 01:53 Mostly Cloudy 53 11.7 37 2.8 55 55 SSW 3 6 29.99 1016 10 16 0.00 0.00
2:53 am 02:53 Mostly Clear 50 10 37 2.8 61 61 SW 3 6 30.00 1016 10 16 0.00 0.00
3:53 am 03:53 Clear 47 8.3 36 2.2 66 66 Calm 30.03 1017 10 16 0.00 0.00
4:53 am 04:53 Clear 50 10 37 2.8 61 61 SW 3 6 30.04 1017 10 16 0.00 0.00
5:53 am 05:53 Clear 47 8.3 37 2.8 69 69 SW 3 6 30.06 1018 10 16 0.00 0.00
6:53 am 06:53 Clear 45 7.2 36 2.2 71 71 SW 5 7 30.08 1019 10 16 0.00 0.00
7:53 am 07:53 Sunny 47 8.3 37 2.8 69 69 Calm 30.09 1019 10 16 0.00 0.00
8:53 am 08:53 Sunny 50 10 39 3.9 66 66 SW 5 7 30.11 1020 10 16 0.00 0.00
9:53 am 09:53 Sunny 57 13.9 39 3.9 51 51 NNW 5 7 30.11 1020 10 16 0.00 0.00
10:53 am 10:53 Sunny 60 15.6 38 3.3 44 44 VRB 3 6 30.12 1020 10 16 0.00 0.00
11:53 am 11:53 Sunny 63 17.2 38 3.3 40 40 NW 6 9 30.11 1020 10 16 0.00 0.00
12:53 pm 12:53 Mostly Sunny 64 17.8 37 2.8 37 37 VRB 5 7 30.08 1019 10 16 0.00 0.00
1:53 pm 13:53 Mostly Sunny 65 18.3 36 2.2 34 34 SW 8 13 30.07 1018 10 16 0.00 0.00
2:53 pm 14:53 Mostly Sunny 66 18.9 35 1.7 32 32 W 8 13 30.07 1018 10 16 0.00 0.00
3:53 pm 15:53 Mostly Sunny 65 18.3 35 1.7 33 33 W 7 11 30.08 1019 10 16 0.00 0.00
4:53 pm 16:53 Partly Cloudy 62 16.7 35 1.7 37 37 Calm 30.07 1018 10 16 0.00 0.00
5:53 pm 17:53 Partly Cloudy 62 16.7 36 2.2 38 38 SSW 5 7 30.07 1018 10 16 0.00 0.00
6:53 pm 18:53 Partly Cloudy 60 15.6 37 2.8 42 42 SSW 5 7 30.06 1018 10 16 0.00 0.00
7:53 pm 19:53 Partly Cloudy 58 14.4 38 3.3 48 48 S 6 9 30.04 1017 10 16 0.00 0.00
8:53 pm 20:53 Partly Cloudy 57 13.9 39 3.9 51 51 SSW 5 7 30.02 1017 10 16 0.00 0.00
9:53 pm 21:53 Mostly Cloudy 55 12.8 39 3.9 55 55 Calm 30.01 1016 10 16 0.00 0.00
10:53 pm 22:53 Mostly Cloudy 58 14.4 39 3.9 50 50 SSW 7 11 29.99 1016 10 16 0.00 0.00
11:53 pm 23:53 Mostly Cloudy 58 14.4 39 3.9 50 50 SSW 6 9 29.99 1016 10 16 0.00 0.00

Powered by AerisWeather